project_name,platform_name,Date_(yyyymmdd),Time_(hh24miss),beacon_ID,latitude_DD,longitude_DD,altitude_m,altitude_result_value_type,speed_m_s,speed_result_value_type,direction_degrees,direction_result_value_type,fix,sat
BaySys,Amundsen,2008-05-03,03:05:06,300034012618770,70.8604,-125.0409,-7.2797,Actual,0.0000,Calculated,281.9900,Calculated,1,5
BaySys,Amundsen,2008-05-03,05:04:33,300034012618770,70.8687,-125.1038,-12.8249,Actual,0.3462,Calculated,296.8600,Calculated,1,7
BaySys,Amundsen,2008-05-03,07:04:41,300034012618770,70.8768,-125.1676,-6.6475,Actual,0.3473,Calculated,288.2900,Calculated,1,5
BaySys,Amundsen,2008-05-03,09:05:23,300034012618770,70.8826,-125.2237,-7.7308,Actual,0.2971,Calculated,291.3900,Calculated,1,8
BaySys,Amundsen,2008-05-03,11:05:05,300034012618770,70.8899,-125.2734,4.9859,Actual,0.2773,Calculated,308.7300,Calculated,1,6
BaySys,Amundsen,2008-05-03,13:04:48,300034012618770,70.8972,-125.3239,-9.7651,Actual,0.2809,Calculated,287.9500,Calculated,1,8
BaySys,Amundsen,2008-05-03,15:04:38,300034012618770,70.9056,-125.3769,-6.8780,Actual,0.2992,Calculated,294.1200,Calculated,1,9
BaySys,Amundsen,2008-05-03,17:04:46,300034012618770,70.9145,-125.4311,4.4962,Actual,0.3072,Calculated,293.8500,Calculated,1,7
BaySys,Amundsen,2008-05-03,19:04:48,300034012618770,70.9223,-125.4830,-7.4724,Actual,0.2895,Calculated,291.9800,Calculated,1,6
BaySys,Amundsen,2008-05-03,21:05:23,300034012618770,70.9289,-125.5279,-3.2044,Actual,0.2483,Calculated,293.9500,Calculated,1,6
BaySys,Amundsen,2008-05-03,23:04:55,300034012618770,70.9348,-125.5657,-0.0956,Actual,0.2130,Calculated,292.9500,Calculated,1,7
BaySys,Amundsen,2008-05-04,01:04:54,300034012618770,70.9420,-125.5992,-9.3183,Actual,0.2031,Calculated,290.5800,Calculated,1,9
BaySys,Amundsen,2008-05-04,03:05:18,300034012618770,70.9507,-125.6432,-13.5848,Actual,0.2595,Calculated,300.2200,Calculated,1,8
BaySys,Amundsen,2008-05-04,05:04:57,300034012618770,70.9602,-125.6934,-17.1098,Actual,0.2945,Calculated,304.2700,Calculated,1,8
BaySys,Amundsen,2008-05-04,07:04:58,300034012618770,70.9692,-125.7397,-7.7571,Actual,0.2725,Calculated,301.4100,Calculated,1,7
BaySys,Amundsen,2008-05-04,09:05:01,300034012618770,70.9777,-125.7801,1.9456,Actual,0.2429,Calculated,290.8400,Calculated,1,10
BaySys,Amundsen,2008-05-04,11:05:30,300034012618770,70.9850,-125.8114,1.9855,Actual,0.1937,Calculated,311.6800,Calculated,1,10
BaySys,Amundsen,2008-05-04,13:05:07,300034012618770,70.9923,-125.8395,-12.0325,Actual,0.1821,Calculated,274.5100,Calculated,1,10
BaySys,Amundsen,2008-05-04,15:05:04,300034012618770,71.0012,-125.8772,-6.2103,Actual,0.2352,Calculated,289.3300,Calculated,1,12
BaySys,Amundsen,2008-05-04,17:05:19,300034012618770,71.0126,-125.9250,-5.7916,Actual,0.2984,Calculated,320.6400,Calculated,1,6
BaySys,Amundsen,2008-05-04,19:05:13,300034012618770,71.0251,-125.9718,-7.6333,Actual,0.3056,Calculated,335.5600,Calculated,1,8
BaySys,Amundsen,2008-05-04,21:05:12,300034012618770,71.0369,-126.0099,94.7752,Actual,0.2652,Calculated,300.8000,Calculated,1,6
BaySys,Amundsen,2008-05-04,23:05:53,300034012618770,71.0477,-126.0406,-0.1323,Actual,0.2266,Calculated,316.1800,Calculated,1,10
BaySys,Amundsen,2008-05-05,01:05:23,300034012618770,71.0584,-126.0666,-8.1398,Actual,0.2121,Calculated,332.3200,Calculated,1,7
BaySys,Amundsen,2008-05-05,03:05:19,300034012618770,71.0717,-126.0970,-3.8996,Actual,0.2568,Calculated,344.6800,Calculated,1,13
BaySys,Amundsen,2008-05-05,05:05:29,300034012618770,71.0875,-126.1360,29.6231,Actual,0.3133,Calculated,314.4500,Calculated,1,7
BaySys,Amundsen,2008-05-05,07:06:05,300034012618770,71.1034,-126.1759,-2.7754,Actual,0.3161,Calculated,322.9900,Calculated,1,8
BaySys,Amundsen,2008-05-05,09:06:05,300034012618770,71.1166,-126.2037,-5.0630,Actual,0.2476,Calculated,329.8400,Calculated,1,7
BaySys,Amundsen,2008-05-05,11:05:30,300034012618770,71.1277,-126.2204,37.6689,Actual,0.1923,Calculated,338.5900,Calculated,1,9
BaySys,Amundsen,2008-05-05,13:05:59,300034012618770,71.1395,-126.2352,8.0671,Actual,0.1966,Calculated,343.8200,Calculated,1,9
BaySys,Amundsen,2008-05-05,15:05:38,300034012618770,71.1527,-126.2580,-4.7974,Actual,0.2350,Calculated,330.3300,Calculated,1,11
BaySys,Amundsen,2008-05-05,17:06:00,300034012618770,71.1687,-126.2922,-4.3935,Actual,0.3004,Calculated,322.9300,Calculated,1,7
BaySys,Amundsen,2008-05-05,19:05:39,300034012618770,71.1861,-126.3302,-10.4011,Actual,0.3309,Calculated,332.8000,Calculated,1,7
BaySys,Amundsen,2008-05-05,21:05:39,300034012618770,71.2030,-126.3610,-19.4281,Actual,0.3038,Calculated,320.5200,Calculated,1,9
BaySys,Amundsen,2008-05-05,23:06:23,300034012618770,71.2177,-126.3822,5.1392,Actual,0.2497,Calculated,327.5100,Calculated,1,10
BaySys,Amundsen,2008-05-06,01:05:46,300034012618770,71.2311,-126.4015,-15.5141,Actual,0.2301,Calculated,326.5500,Calculated,1,9
BaySys,Amundsen,2008-05-06,03:05:48,300034012618770,71.2442,-126.4259,-6.3942,Actual,0.2366,Calculated,357.7000,Calculated,1,10
BaySys,Amundsen,2008-05-06,05:05:55,300034012618770,71.2580,-126.4550,9.6332,Actual,0.2582,Calculated,311.4600,Calculated,1,10
BaySys,Amundsen,2008-05-06,07:06:18,300034012618770,71.2725,-126.4825,-2.1505,Actual,0.2623,Calculated,323.2000,Calculated,1,7
BaySys,Amundsen,2008-05-06,09:05:55,300034012618770,71.2839,-126.4996,2.5688,Actual,0.1967,Calculated,340.9900,Calculated,1,11
BaySys,Amundsen,2008-05-06,11:06:35,300034012618770,71.2899,-126.5043,-8.1877,Actual,0.0953,Calculated,328.3000,Calculated,1,11
BaySys,Amundsen,2008-05-06,13:06:14,300034012618770,71.2929,-126.5062,0.8323,Actual,0.0476,Calculated,339.5800,Calculated,1,11
BaySys,Amundsen,2008-05-06,15:06:03,300034012618770,71.2980,-126.5126,-6.5075,Actual,0.0853,Calculated,300.4500,Calculated,1,11
BaySys,Amundsen,2008-05-06,17:06:18,300034012618770,71.3070,-126.5260,-3.3426,Actual,0.1542,Calculated,333.7400,Calculated,1,7
BaySys,Amundsen,2008-05-06,19:06:07,300034012618770,71.3184,-126.5442,-11.1610,Actual,0.1988,Calculated,326.0900,Calculated,1,8
BaySys,Amundsen,2008-05-06,21:06:08,300034012618770,71.3304,-126.5559,-12.6255,Actual,0.1948,Calculated,358.9000,Calculated,1,6
BaySys,Amundsen,2008-05-06,23:06:09,300034012618770,71.3403,-126.5550,5.8547,Actual,0.1535,Calculated,333.6500,Calculated,1,8
BaySys,Amundsen,2008-05-07,01:06:11,300034012618770,71.3466,-126.5505,-23.8687,Actual,0.1001,Calculated,279.6500,Calculated,1,8
BaySys,Amundsen,2008-05-07,03:06:11,300034012618770,71.3520,-126.5493,-10.3551,Actual,0.0839,Calculated,116.6300,Calculated,1,8
BaySys,Amundsen,2008-05-07,05:06:35,300034012618770,71.3576,-126.5542,-3.9475,Actual,0.0898,Calculated,199.8600,Calculated,1,7
BaySys,Amundsen,2008-05-07,07:06:13,300034012618770,71.3643,-126.5656,36.7909,Actual,0.1186,Calculated,339.0400,Calculated,1,7
BaySys,Amundsen,2008-05-07,09:06:59,300034012618770,71.3706,-126.5722,-2.3414,Actual,0.1023,Calculated,343.4400,Calculated,1,11
BaySys,Amundsen,2008-05-07,11:06:53,300034012618770,71.3756,-126.5657,-0.1630,Actual,0.0840,Calculated,358.6000,Calculated,1,11
BaySys,Amundsen,2008-05-07,13:06:26,300034012618770,71.3781,-126.5518,-6.1228,Actual,0.0793,Calculated,131.6200,Calculated,1,6
BaySys,Amundsen,2008-05-07,15:06:24,300034012618770,71.3797,-126.5448,-18.0827,Actual,0.0426,Calculated,7.6400,Calculated,1,11
BaySys,Amundsen,2008-05-07,17:06:49,300034012618770,71.3832,-126.5510,-0.7723,Actual,0.0621,Calculated,314.6800,Calculated,1,9
BaySys,Amundsen,2008-05-07,19:06:59,300034012618770,71.3891,-126.5673,-3.5109,Actual,0.1218,Calculated,161.7600,Calculated,1,8
BaySys,Amundsen,2008-05-07,21:06:59,300034012618770,71.3965,-126.5806,-13.6305,Actual,0.1322,Calculated,339.0000,Calculated,1,9
BaySys,Amundsen,2008-05-07,23:07:05,300034012618770,71.4021,-126.5831,-7.0770,Actual,0.0876,Calculated,242.2700,Calculated,1,8
BaySys,Amundsen,2008-05-08,01:06:36,300034012618770,71.4036,-126.5796,-12.7882,Actual,0.0291,Calculated,345.2900,Calculated,1,10
BaySys,Amundsen,2008-05-08,03:06:32,300034012618770,71.4045,-126.5803,-8.3797,Actual,0.0144,Calculated,359.8900,Calculated,1,9
BaySys,Amundsen,2008-05-08,05:06:43,300034012618770,71.4082,-126.5885,-3.0173,Actual,0.0701,Calculated,315.3500,Calculated,1,12
BaySys,Amundsen,2008-05-08,07:07:00,300034012618770,71.4168,-126.5992,-5.1396,Actual,0.1430,Calculated,346.0900,Calculated,1,9
BaySys,Amundsen,2008-05-08,09:06:39,300034012618770,71.4269,-126.6055,-0.7465,Actual,0.1601,Calculated,341.5100,Calculated,1,7
BaySys,Amundsen,2008-05-08,11:07:05,300034012618770,71.4356,-126.6020,-5.5215,Actual,0.1354,Calculated,346.9400,Calculated,1,10
BaySys,Amundsen,2008-05-08,13:06:43,300034012618770,71.4414,-126.5886,-3.6964,Actual,0.1119,Calculated,35.4100,Calculated,1,10
BaySys,Amundsen,2008-05-08,15:07:00,300034012618770,71.4462,-126.5761,1.7101,Actual,0.0964,Calculated,52.9000,Calculated,1,8
BaySys,Amundsen,2008-05-08,17:06:48,300034012618770,71.4511,-126.5732,2.2463,Actual,0.0774,Calculated,9.8900,Calculated,1,8
BaySys,Amundsen,2008-05-08,19:06:51,300034012618770,71.4583,-126.5801,-16.3711,Actual,0.1166,Calculated,350.4500,Calculated,1,8
BaySys,Amundsen,2008-05-08,21:07:23,300034012618770,71.4681,-126.5887,-17.9844,Actual,0.1570,Calculated,134.0200,Calculated,1,11
BaySys,Amundsen,2008-05-08,23:07:23,300034012618770,71.4776,-126.5906,-5.2277,Actual,0.1475,Calculated,11.5100,Calculated,1,10
BaySys,Amundsen,2008-05-09,01:06:57,300034012618770,71.4863,-126.5882,-19.2303,Actual,0.1358,Calculated,344.1600,Calculated,1,11
BaySys,Amundsen,2008-05-09,03:06:57,300034012618770,71.4945,-126.5840,3.5578,Actual,0.1287,Calculated,349.0500,Calculated,1,11
BaySys,Amundsen,2008-05-09,05:07:23,300034012618770,71.5040,-126.5852,-1.8386,Actual,0.1468,Calculated,14.1200,Calculated,1,10
BaySys,Amundsen,2008-05-09,07:07:27,300034012618770,71.5146,-126.5923,-9.2595,Actual,0.1678,Calculated,344.8500,Calculated,1,9
BaySys,Amundsen,2008-05-09,09:07:02,300034012618770,71.5245,-126.6016,1.0493,Actual,0.1606,Calculated,355.6100,Calculated,1,7
BaySys,Amundsen,2008-05-09,11:07:02,300034012618770,71.5321,-126.6088,2.5829,Actual,0.1230,Calculated,28.1900,Calculated,1,8
BaySys,Amundsen,2008-05-09,13:07:12,300034012618770,71.5375,-126.6099,-6.0456,Actual,0.0837,Calculated,338.3500,Calculated,1,10
BaySys,Amundsen,2008-05-09,15:07:24,300034012618770,71.5438,-126.6075,-14.9703,Actual,0.0982,Calculated,333.6500,Calculated,1,8
BaySys,Amundsen,2008-05-09,17:07:53,300034012618770,71.5509,-126.6068,-6.6626,Actual,0.1096,Calculated,357.9400,Calculated,1,11
BaySys,Amundsen,2008-05-09,19:07:19,300034012618770,71.5584,-126.6126,-17.0141,Actual,0.1202,Calculated,185.0500,Calculated,1,7
BaySys,Amundsen,2008-05-09,21:07:53,300034012618770,71.5651,-126.6240,-15.3232,Actual,0.1174,Calculated,326.3400,Calculated,1,11
BaySys,Amundsen,2008-05-09,23:07:47,300034012618770,71.5702,-126.6380,0.7694,Actual,0.1048,Calculated,318.1400,Calculated,1,9
BaySys,Amundsen,2008-05-10,01:07:30,300034012618770,71.5741,-126.6477,-20.7098,Actual,0.0771,Calculated,262.2800,Calculated,1,9
BaySys,Amundsen,2008-05-10,03:07:48,300034012618770,71.5794,-126.6452,-7.9671,Actual,0.0828,Calculated,18.4000,Calculated,1,10
BaySys,Amundsen,2008-05-10,05:07:29,300034012618770,71.5854,-126.6385,-7.0065,Actual,0.0989,Calculated,354.0000,Calculated,1,9
BaySys,Amundsen,2008-05-10,07:07:31,300034012618770,71.5910,-126.6382,-9.4406,Actual,0.0868,Calculated,352.9000,Calculated,1,8
BaySys,Amundsen,2008-05-10,09:07:34,300034012618770,71.5963,-126.6471,-1.9618,Actual,0.0929,Calculated,322.4100,Calculated,1,9
BaySys,Amundsen,2008-05-10,11:08:05,300034012618770,71.6009,-126.6577,-7.4841,Actual,0.0878,Calculated,359.3600,Calculated,1,11
BaySys,Amundsen,2008-05-10,13:08:05,300034012618770,71.6050,-126.6612,-9.1028,Actual,0.0658,Calculated,20.7000,Calculated,1,10
BaySys,Amundsen,2008-05-10,15:07:57,300034012618770,71.6078,-126.6580,61.5481,Actual,0.0462,Calculated,35.8500,Calculated,1,13
BaySys,Amundsen,2008-05-10,17:07:47,300034012618770,71.6090,-126.6546,-3.7309,Actual,0.0250,Calculated,35.2000,Calculated,1,8
BaySys,Amundsen,2008-05-10,19:08:24,300034012618770,71.6110,-126.6550,-4.8263,Actual,0.0309,Calculated,340.1800,Calculated,1,9
BaySys,Amundsen,2008-05-10,21:07:45,300034012618770,71.6147,-126.6606,-20.8264,Actual,0.0639,Calculated,33.1100,Calculated,1,7
BaySys,Amundsen,2008-05-10,23:07:49,300034012618770,71.6195,-126.6670,-1.6841,Actual,0.0807,Calculated,339.5500,Calculated,1,8
BaySys,Amundsen,2008-05-11,01:07:48,300034012618770,71.6246,-126.6672,-17.0868,Actual,0.0791,Calculated,311.7300,Calculated,1,11
BaySys,Amundsen,2008-05-11,03:07:48,300034012618770,71.6283,-126.6607,-13.9288,Actual,0.0656,Calculated,317.3200,Calculated,1,10
BaySys,Amundsen,2008-05-11,05:07:58,300034012618770,71.6309,-126.6540,-3.9006,Actual,0.0518,Calculated,94.5000,Calculated,1,10
BaySys,Amundsen,2008-05-11,07:07:58,300034012618770,71.6343,-126.6532,-3.9473,Actual,0.0528,Calculated,249.5600,Calculated,1,7
BaySys,Amundsen,2008-05-11,09:08:11,300034012618770,71.6387,-126.6595,-31.0472,Actual,0.0747,Calculated,330.4600,Calculated,1,9
BaySys,Amundsen,2008-05-11,11:08:29,300034012618770,71.6442,-126.6685,-4.2466,Actual,0.0957,Calculated,328.6000,Calculated,1,10
BaySys,Amundsen,2008-05-11,13:08:29,300034012618770,71.6489,-126.6768,-16.5532,Actual,0.0834,Calculated,343.2900,Calculated,1,10
BaySys,Amundsen,2008-05-11,15:07:58,300034012618770,71.6518,-126.6813,-5.0851,Actual,0.0502,Calculated,286.8200,Calculated,1,9
BaySys,Amundsen,2008-05-11,17:08:05,300034012618770,71.6533,-126.6836,9.0166,Actual,0.0258,Calculated,44.3500,Calculated,1,9
BaySys,Amundsen,2008-05-11,19:07:58,300034012618770,71.6559,-126.6884,-16.4423,Actual,0.0467,Calculated,17.7500,Calculated,1,9
BaySys,Amundsen,2008-05-11,21:08:35,300034012618770,71.6589,-126.6973,-12.0276,Actual,0.0633,Calculated,84.4400,Calculated,1,10
BaySys,Amundsen,2008-05-11,23:08:08,300034012618770,71.6592,-126.7092,-1.8354,Actual,0.0585,Calculated,305.7300,Calculated,1,7
BaySys,Amundsen,2008-05-12,01:08:35,300034012618770,71.6551,-126.7247,-3.4078,Actual,0.0984,Calculated,180.1300,Calculated,1,9
BaySys,Amundsen,2008-05-12,03:08:26,300034012618770,71.6480,-126.7409,-5.7845,Actual,0.1357,Calculated,214.4500,Calculated,1,9
BaySys,Amundsen,2008-05-12,05:08:30,300034012618770,71.6408,-126.7568,-1.9457,Actual,0.1359,Calculated,200.5000,Calculated,1,6
BaySys,Amundsen,2008-05-12,07:08:20,300034012618770,71.6362,-126.7716,-15.0377,Actual,0.1017,Calculated,253.7300,Calculated,1,9
BaySys,Amundsen,2008-05-12,09:08:53,300034012618770,71.6348,-126.7858,-7.5533,Actual,0.0724,Calculated,264.9100,Calculated,1,10
BaySys,Amundsen,2008-05-12,11:08:44,300034012618770,71.6343,-126.8009,9.7875,Actual,0.0743,Calculated,348.7300,Calculated,1,9
BaySys,Amundsen,2008-05-12,13:08:25,300034012618770,71.6330,-126.8168,-18.4704,Actual,0.0805,Calculated,281.0600,Calculated,1,9
BaySys,Amundsen,2008-05-12,15:08:45,300034012618770,71.6310,-126.8289,-2.6277,Actual,0.0666,Calculated,258.7300,Calculated,1,15
BaySys,Amundsen,2008-05-12,17:08:29,300034012618770,71.6280,-126.8371,-5.7490,Actual,0.0615,Calculated,209.4400,Calculated,1,10
BaySys,Amundsen,2008-05-12,19:08:34,300034012618770,71.6256,-126.8464,-12.9911,Actual,0.0587,Calculated,294.3300,Calculated,1,7
BaySys,Amundsen,2008-05-12,21:09:05,300034012618770,71.6258,-126.8608,-8.0849,Actual,0.0702,Calculated,292.1600,Calculated,1,10
BaySys,Amundsen,2008-05-12,23:09:05,300034012618770,71.6297,-126.8790,-2.1755,Actual,0.1075,Calculated,314.4200,Calculated,1,10
BaySys,Amundsen,2008-05-13,01:08:33,300034012618770,71.6355,-126.8936,-13.9027,Actual,0.1153,Calculated,299.4500,Calculated,1,12
BaySys,Amundsen,2008-05-13,03:08:42,300034012618770,71.6414,-126.9006,-7.7371,Actual,0.0975,Calculated,344.2200,Calculated,1,11
BaySys,Amundsen,2008-05-13,05:08:37,300034012618770,71.6453,-126.9029,-10.7945,Actual,0.0615,Calculated,46.9600,Calculated,1,6
BaySys,Amundsen,2008-05-13,07:09:05,300034012618770,71.6521,-126.9071,-4.8520,Actual,0.1069,Calculated,30.2000,Calculated,1,7
BaySys,Amundsen,2008-05-13,09:08:46,300034012618770,71.6617,-126.9145,-7.0629,Actual,0.1535,Calculated,354.7800,Calculated,1,9
BaySys,Amundsen,2008-05-13,11:09:12,300034012618770,71.6725,-126.9199,10.6986,Actual,0.1688,Calculated,352.2000,Calculated,1,10
BaySys,Amundsen,2008-05-13,13:09:23,300034012618770,71.6822,-126.9172,-14.8746,Actual,0.1507,Calculated,16.8100,Calculated,1,11
BaySys,Amundsen,2008-05-13,15:09:08,300034012618770,71.6899,-126.9122,-23.4755,Actual,0.1220,Calculated,237.3500,Calculated,1,12
BaySys,Amundsen,2008-05-13,17:08:55,300034012618770,71.6955,-126.9097,-4.8161,Actual,0.0878,Calculated,84.6500,Calculated,1,7
BaySys,Amundsen,2008-05-13,19:09:15,300034012618770,71.7016,-126.9113,-1.4891,Actual,0.0946,Calculated,355.0800,Calculated,1,9
BaySys,Amundsen,2008-05-13,21:09:29,300034012618770,71.7098,-126.9143,-13.8871,Actual,0.1277,Calculated,65.2600,Calculated,1,9
BaySys,Amundsen,2008-05-13,23:09:01,300034012618770,71.7210,-126.9192,-3.5271,Actual,0.1759,Calculated,11.4900,Calculated,1,9
BaySys,Amundsen,2008-05-14,01:09:00,300034012618770,71.7336,-126.9265,-13.7888,Actual,0.1985,Calculated,336.2600,Calculated,1,11
BaySys,Amundsen,2008-05-14,03:09:24,300034012618770,71.7469,-126.9341,-6.3739,Actual,0.2087,Calculated,347.4400,Calculated,1,10
BaySys,Amundsen,2008-05-14,05:09:13,300034012618770,71.7592,-126.9401,-5.6189,Actual,0.1931,Calculated,342.6100,Calculated,1,9
BaySys,Amundsen,2008-05-14,07:09:14,300034012618770,71.7714,-126.9463,-8.0271,Actual,0.1914,Calculated,359.1700,Calculated,1,9
BaySys,Amundsen,2008-05-14,09:09:35,300034012618770,71.7861,-126.9561,-10.0620,Actual,0.2320,Calculated,23.7400,Calculated,1,9
BaySys,Amundsen,2008-05-14,11:09:33,300034012618770,71.8059,-126.9731,15.5965,Actual,0.3178,Calculated,33.5100,Calculated,1,8
BaySys,Amundsen,2008-05-14,13:09:18,300034012618770,71.8288,-126.9936,-15.1896,Actual,0.3693,Calculated,357.7300,Calculated,1,8
BaySys,Amundsen,2008-05-15,15:09:52,300034012618770,72.0737,-127.2573,7.6983,Actual,0.3077,Calculated,289.9400,Calculated,1,12
BaySys,Amundsen,2008-05-15,17:09:50,300034012618770,72.0807,-127.3050,-7.2259,Actual,0.2522,Calculated,323.8800,Calculated,1,8
BaySys,Amundsen,2008-05-15,19:09:56,300034012618770,72.0888,-127.3413,-14.6829,Actual,0.2137,Calculated,333.8600,Calculated,1,8
BaySys,Amundsen,2008-05-15,21:09:52,300034012618770,72.0936,-127.3513,-10.9009,Actual,0.0884,Calculated,348.6100,Calculated,1,6
BaySys,Amundsen,2008-05-15,23:10:35,300034012618770,72.0945,-127.3475,-11.0625,Actual,0.0227,Calculated,118.3200,Calculated,1,9
BaySys,Amundsen,2008-05-16,01:10:10,300034012618770,72.0930,-127.3428,-19.4388,Actual,0.0324,Calculated,349.0200,Calculated,1,13
BaySys,Amundsen,2008-05-16,03:10:01,300034012618770,72.0914,-127.3562,-7.6970,Actual,0.0686,Calculated,320.0800,Calculated,1,13
BaySys,Amundsen,2008-05-16,05:10:03,300034012618770,72.0929,-127.3838,1.8498,Actual,0.1336,Calculated,265.5800,Calculated,1,8
BaySys,Amundsen,2008-05-16,07:10:35,300034012618770,72.0958,-127.4098,4.7198,Actual,0.1313,Calculated,311.6200,Calculated,1,9
BaySys,Amundsen,2008-05-16,09:10:08,300034012618770,72.0985,-127.4206,-5.4899,Actual,0.0666,Calculated,342.8700,Calculated,1,8
BaySys,Amundsen,2008-05-16,11:10:05,300034012618770,72.0993,-127.4192,-13.5567,Actual,0.0141,Calculated,184.4300,Calculated,1,9
BaySys,Amundsen,2008-05-16,13:10:35,300034012618770,72.0988,-127.4148,-5.4023,Actual,0.0223,Calculated,68.4000,Calculated,1,11
BaySys,Amundsen,2008-05-16,15:10:19,300034012618770,72.0987,-127.4214,58.9950,Actual,0.0316,Calculated,284.9700,Calculated,1,8
BaySys,Amundsen,2008-05-16,17:10:59,300034012618770,72.0995,-127.4386,-0.0163,Actual,0.0825,Calculated,303.0200,Calculated,1,9
BaySys,Amundsen,2008-05-16,19:10:59,300034012618770,72.1006,-127.4562,-6.1232,Actual,0.0856,Calculated,279.1100,Calculated,1,10
BaySys,Amundsen,2008-05-16,21:10:25,300034012618770,72.0999,-127.4648,0.0496,Actual,0.0426,Calculated,310.4500,Calculated,1,8
BaySys,Amundsen,2008-05-16,23:10:26,300034012618770,72.0985,-127.4723,0.3840,Actual,0.0418,Calculated,272.1500,Calculated,1,10
BaySys,Amundsen,2008-05-17,01:10:53,300034012618770,72.0977,-127.4822,-10.9665,Actual,0.0486,Calculated,55.7100,Calculated,1,12
BaySys,Amundsen,2008-05-17,03:10:31,300034012618770,72.0986,-127.4976,-7.7664,Actual,0.0750,Calculated,278.9500,Calculated,1,12
BaySys,Amundsen,2008-05-17,05:10:54,300034012618770,72.1015,-127.5188,-1.5799,Actual,0.1102,Calculated,213.3500,Calculated,1,10
BaySys,Amundsen,2008-05-17,07:10:39,300034012618770,72.1029,-127.5393,1.9857,Actual,0.1003,Calculated,285.1200,Calculated,1,9
BaySys,Amundsen,2008-05-17,09:11:05,300034012618770,72.1027,-127.5501,-9.2281,Actual,0.0514,Calculated,218.4300,Calculated,1,7
BaySys,Amundsen,2008-05-17,11:11:06,300034012618770,72.1017,-127.5516,4.6830,Actual,0.0171,Calculated,275.4600,Calculated,1,9
BaySys,Amundsen,2008-05-17,13:10:42,300034012618770,72.1009,-127.5520,-8.9674,Actual,0.0126,Calculated,306.5600,Calculated,1,9
BaySys,Amundsen,2008-05-17,15:10:44,300034012618770,72.1026,-127.5575,-3.3964,Actual,0.0372,Calculated,16.1600,Calculated,1,9
BaySys,Amundsen,2008-05-17,17:11:05,300034012618770,72.1065,-127.5690,-1.5325,Actual,0.0814,Calculated,29.8600,Calculated,1,7
BaySys,Amundsen,2008-05-17,19:11:23,300034012618770,72.1107,-127.5821,-8.7856,Actual,0.0900,Calculated,42.8100,Calculated,1,10
BaySys,Amundsen,2008-05-17,21:10:54,300034012618770,72.1117,-127.5914,-13.3961,Actual,0.0471,Calculated,352.2500,Calculated,1,9
BaySys,Amundsen,2008-05-17,23:10:54,300034012618770,72.1103,-127.5993,-0.5036,Actual,0.0434,Calculated,162.8100,Calculated,1,7
BaySys,Amundsen,2008-05-18,01:11:23,300034012618770,72.1077,-127.6148,-14.8236,Actual,0.0838,Calculated,96.1300,Calculated,1,12
BaySys,Amundsen,2008-05-18,03:11:03,300034012618770,72.1071,-127.6428,2.8017,Actual,0.1341,Calculated,267.5300,Calculated,1,12
BaySys,Amundsen,2008-05-18,05:11:35,300034012618770,72.1104,-127.6784,-2.1210,Actual,0.1764,Calculated,299.1700,Calculated,1,9
BaySys,Amundsen,2008-05-18,07:11:35,300034012618770,72.1158,-127.7087,-2.3965,Actual,0.1668,Calculated,200.8500,Calculated,1,10
BaySys,Amundsen,2008-05-18,09:11:30,300034012618770,72.1183,-127.7264,-1.2707,Actual,0.0928,Calculated,294.9300,Calculated,1,11
BaySys,Amundsen,2008-05-18,11:11:14,300034012618770,72.1184,-127.7292,-8.6057,Actual,0.0135,Calculated,97.8400,Calculated,1,9
BaySys,Amundsen,2008-05-18,13:11:35,300034012618770,72.1138,-127.7330,-6.7225,Actual,0.0733,Calculated,206.1500,Calculated,1,10
BaySys,Amundsen,2008-05-18,15:11:25,300034012618770,72.1085,-127.7471,5.0714,Actual,0.1063,Calculated,97.4000,Calculated,1,5
BaySys,Amundsen,2008-05-18,17:11:20,300034012618770,72.1072,-127.7694,-2.9565,Actual,0.1082,Calculated,323.4800,Calculated,1,7
BaySys,Amundsen,2008-05-18,19:11:35,300034012618770,72.1086,-127.7924,-9.5287,Actual,0.1115,Calculated,34.9800,Calculated,1,9
BaySys,Amundsen,2008-05-18,21:11:35,300034012618770,72.1111,-127.8112,-22.9526,Actual,0.0976,Calculated,253.8100,Calculated,1,11
BaySys,Amundsen,2008-05-18,23:11:30,300034012618770,72.1126,-127.8209,-2.2133,Actual,0.0518,Calculated,265.4200,Calculated,1,6
BaySys,Amundsen,2008-05-19,01:12:00,300034012618770,72.1119,-127.8298,-5.9174,Actual,0.0436,Calculated,240.5100,Calculated,1,12
BaySys,Amundsen,2008-05-19,03:11:35,300034012618770,72.1115,-127.8438,-5.9537,Actual,0.0672,Calculated,268.0500,Calculated,1,11
BaySys,Amundsen,2008-05-19,05:12:05,300034012618770,72.1123,-127.8605,-4.7094,Actual,0.0802,Calculated,260.2000,Calculated,1,8
BaySys,Amundsen,2008-05-19,07:12:05,300034012618770,72.1128,-127.8739,0.4472,Actual,0.0643,Calculated,160.5600,Calculated,1,8
BaySys,Amundsen,2008-05-19,09:11:39,300034012618770,72.1106,-127.8802,-3.4953,Actual,0.0456,Calculated,175.3500,Calculated,1,6
BaySys,Amundsen,2008-05-19,11:12:06,300034012618770,72.1046,-127.8797,6.6480,Actual,0.0927,Calculated,170.0300,Calculated,1,6
BaySys,Amundsen,2008-05-19,13:11:45,300034012618770,72.0948,-127.8801,2.6201,Actual,0.1523,Calculated,189.4300,Calculated,1,14